When you browse on this site, cookies collect data to enhance your experience and personalize the content and advertising you see.
Visit our Privacy Policy to learn more. By continuing to use the site, you agree to this use of cookies and data.
  • In Hungary
  • List of Countries
  • For 7 days
  • Water Temperature
  • Weather Map
  • News
  • Weather Widgets
  • user-avatar
    Login

    Hourly Weather Vsetin

    Today, 22 August, Thursday

    Time Temperature Precipitation Wind Pressure Humidity
    00:00 +12°C° 0 mm 3 mps 728 mmHg 94%
    01:00 +12°C° 0 mm 3 mps 729 mmHg 94%
    02:00 +12°C° 0 mm 3 mps 728 mmHg 94%
    03:00 +12°C° 0 mm 3 mps 728 mmHg 93%
    04:00 +12°C° 0 mm 3 mps 728 mmHg 93%
    05:00 +13°C° 0 mm 3 mps 728 mmHg 88%
    06:00 +14°C° 0 mm 3 mps 728 mmHg 84%
    07:00 +16°C° 0 mm 3 mps 729 mmHg 79%
    08:00 +17°C° 0 mm 3 mps 729 mmHg 73%
    09:00 +19°C° 0 mm 3 mps 729 mmHg 68%
    10:00 +20°C° 0 mm 3 mps 729 mmHg 62%
    11:00 +21°C° 0 mm 3 mps 729 mmHg 61%
    12:00 +22°C° 0 mm 3 mps 729 mmHg 60%
    13:00 +23°C° 0 mm 2 mps 729 mmHg 59%
    14:00 +23°C° 0 mm 2 mps 728 mmHg 61%
    15:00 +23°C° 0 mm 2 mps 728 mmHg 62%
    16:00 +23°C° 0 mm 2 mps 728 mmHg 64%
    17:00 +20°C° 0 mm 2 mps 728 mmHg 71%
    18:00 +18°C° 0 mm 2 mps 728 mmHg 78%
    19:00 +18°C° 0 mm 1 mps 727 mmHg 84%
    20:00 +16°C° 0 mm 1 mps 727 mmHg 86%
    21:00 +16°C° 0 mm 1 mps 728 mmHg 89%
    22:00 +15°C° 0 mm 1 mps 728 mmHg 91%
    23:00 +15°C° 0 mm 1 mps 728 mmHg 92%

    Tomorrow, 23 August, Friday

    Time Temperature Precipitation Wind Pressure Humidity
    00:00 +14°C° 0 mm 1 mps 728 mmHg 93%
    01:00 +14°C° 0 mm 1 mps 727 mmHg 93%
    02:00 +14°C° 0 mm 1 mps 727 mmHg 94%
    03:00 +14°C° 0 mm 1 mps 727 mmHg 95%
    04:00 +13°C° 0 mm 1 mps 727 mmHg 95%
    05:00 +14°C° 0 mm 1 mps 727 mmHg 92%
    06:00 +16°C° 0 mm 1 mps 727 mmHg 88%
    07:00 +18°C° 0 mm 1 mps 727 mmHg 84%
    08:00 +20°C° 0 mm 1 mps 728 mmHg 78%
    09:00 +21°C° 0 mm 2 mps 728 mmHg 71%
    10:00 +24°C° 0 mm 2 mps 728 mmHg 64%
    11:00 +25°C° 0 mm 2 mps 728 mmHg 62%
    12:00 +26°C° 0 mm 2 mps 728 mmHg 59%
    13:00 +27°C° 0 mm 2 mps 728 mmHg 56%
    14:00 +27°C° 0 mm 2 mps 727 mmHg 58%
    15:00 +26°C° 0 mm 2 mps 727 mmHg 59%
    16:00 +26°C° 0 mm 2 mps 727 mmHg 61%
    17:00 +24°C° 0 mm 2 mps 726 mmHg 70%
    18:00 +22°C° 0 mm 1 mps 726 mmHg 79%
    19:00 +20°C° 0 mm 1 mps 726 mmHg 88%
    20:00 +20°C° 0 mm 1 mps 726 mmHg 90%
    21:00 +19°C° 0 mm 1 mps 726 mmHg 92%
    22:00 +19°C° 0 mm 1 mps 726 mmHg 93%
    23:00 +19°C° 0 mm 1 mps 726 mmHg 94%

    Day after tomorrow, 24 August, Saturday

    Time Temperature Precipitation Wind Pressure Humidity
    00:00 +18°C° 0 mm 1 mps 726 mmHg 94%
    01:00 +18°C° 0 mm 1 mps 725 mmHg 94%
    02:00 +18°C° 0 mm 1 mps 725 mmHg 94%
    03:00 +18°C° 0 mm 1 mps 725 mmHg 94%
    04:00 +18°C° 0 mm 1 mps 725 mmHg 94%
    05:00 +19°C° 0 mm 1 mps 725 mmHg 91%
    06:00 +20°C° 0 mm 1 mps 725 mmHg 87%
    07:00 +19°C° 0 mm 0 mps 725 mmHg 84%
    08:00 +23°C° 0 mm 1 mps 725 mmHg 76%
    09:00 +25°C° 0 mm 1 mps 726 mmHg 69%
    10:00 +27°C° 0 mm 1 mps 726 mmHg 61%
    11:00 +28°C° 0.1 mm 1 mps 726 mmHg 58%
    12:00 +29°C° 0.1 mm 1 mps 726 mmHg 55%
    13:00 +30°C° 0.1 mm 1 mps 726 mmHg 52%
    14:00 +29°C° 0.2 mm 1 mps 725 mmHg 52%
    15:00 +29°C° 0.2 mm 1 mps 725 mmHg 53%
    16:00 +29°C° 0.2 mm 1 mps 725 mmHg 53%
    17:00 +27°C° 0 mm 1 mps 724 mmHg 61%
    18:00 +25°C° 0 mm 1 mps 724 mmHg 68%
    19:00 +23°C° 0 mm 1 mps 724 mmHg 76%
    20:00 +22°C° 0 mm 1 mps 724 mmHg 77%
    21:00 +22°C° 0 mm 1 mps 724 mmHg 79%
    22:00 +21°C° 0 mm 1 mps 724 mmHg 81%
    23:00 +20°C° 0.3 mm 1 mps 724 mmHg 83%

    25 August, Sunday

    Time Temperature Precipitation Wind Pressure Humidity
    00:00 +20°C° 0.3 mm 1 mps 724 mmHg 85%
    01:00 +19°C° 0.3 mm 1 mps 724 mmHg 87%
    02:00 +19°C° 0.1 mm 1 mps 724 mmHg 88%
    03:00 +19°C° 0.1 mm 1 mps 723 mmHg 88%
    04:00 +19°C° 0.1 mm 1 mps 723 mmHg 88%
    05:00 +20°C° 0.1 mm 1 mps 724 mmHg 86%
    06:00 +21°C° 0.1 mm 1 mps 724 mmHg 83%
    07:00 +22°C° 0.1 mm 1 mps 724 mmHg 80%
    08:00 +24°C° 0 mm 1 mps 724 mmHg 71%
    09:00 +27°C° 0 mm 1 mps 725 mmHg 62%
    10:00 +29°C° 0 mm 1 mps 725 mmHg 52%
    11:00 +30°C° 0 mm 1 mps 725 mmHg 49%
    12:00 +31°C° 0 mm 1 mps 725 mmHg 45%
    13:00 +32°C° 0 mm 1 mps 725 mmHg 42%
    14:00 +31°C° 0 mm 1 mps 725 mmHg 45%
    15:00 +30°C° 0 mm 1 mps 725 mmHg 49%
    16:00 +30°C° 0 mm 1 mps 724 mmHg 53%
    17:00 +27°C° 0.2 mm 2 mps 724 mmHg 60%
    18:00 +25°C° 0.2 mm 2 mps 724 mmHg 67%
    19:00 +23°C° 0.2 mm 2 mps 724 mmHg 75%
    20:00 +23°C° 0.2 mm 2 mps 724 mmHg 77%
    21:00 +22°C° 0.2 mm 1 mps 724 mmHg 80%
    22:00 +21°C° 0.2 mm 1 mps 724 mmHg 82%
    23:00 +21°C° 0.1 mm 1 mps 724 mmHg 83%

    26 August, Monday

    Time Temperature Precipitation Wind Pressure Humidity
    00:00 +20°C° 0.1 mm 1 mps 724 mmHg 84%
    01:00 +20°C° 0.1 mm 1 mps 724 mmHg 86%
    02:00 +20°C° 0 mm 1 mps 724 mmHg 86%
    03:00 +19°C° 0 mm 1 mps 724 mmHg 86%
    04:00 +19°C° 0 mm 1 mps 724 mmHg 85%
    05:00 +20°C° 0.3 mm 1 mps 724 mmHg 84%
    06:00 +21°C° 0.3 mm 1 mps 724 mmHg 82%
    07:00 +20°C° 0.3 mm 0 mps 725 mmHg 80%
    08:00 +23°C° 0 mm 0 mps 725 mmHg 71%
    09:00 +25°C° 0 mm 0 mps 725 mmHg 61%
    10:00 +28°C° 0 mm 0 mps 725 mmHg 52%
    11:00 +30°C° 0 mm 1 mps 725 mmHg 49%
    12:00 +31°C° 0 mm 1 mps 725 mmHg 45%
    13:00 +32°C° 0 mm 1 mps 725 mmHg 42%
    14:00 +31°C° 0.1 mm 1 mps 725 mmHg 45%
    15:00 +30°C° 0.1 mm 1 mps 725 mmHg 48%
    16:00 +30°C° 0.1 mm 1 mps 725 mmHg 51%
    17:00 +27°C° 0.6 mm 1 mps 724 mmHg 60%
    18:00 +25°C° 0.6 mm 1 mps 724 mmHg 69%
    19:00 +23°C° 0.6 mm 2 mps 724 mmHg 78%
    20:00 +22°C° 0.5 mm 1 mps 724 mmHg 80%
    21:00 +21°C° 0.5 mm 1 mps 724 mmHg 82%
    22:00 +21°C° 0.5 mm 1 mps 724 mmHg 83%
    23:00 +21°C° 0.5 mm 1 mps 724 mmHg 84%

    27 August, Tuesday

    Time Temperature Precipitation Wind Pressure Humidity
    00:00 +20°C° 0.5 mm 1 mps 724 mmHg 85%
    01:00 +20°C° 0.5 mm 1 mps 724 mmHg 85%
    02:00 +20°C° 0.2 mm 1 mps 724 mmHg 86%
    03:00 +20°C° 0.2 mm 1 mps 724 mmHg 86%
    04:00 +20°C° 0.2 mm 1 mps 724 mmHg 86%
    05:00 +21°C° 0.2 mm 1 mps 724 mmHg 84%
    06:00 +22°C° 0.2 mm 1 mps 724 mmHg 83%
    07:00 +23°C° 0.2 mm 1 mps 724 mmHg 81%
    08:00 +25°C° 0 mm 1 mps 725 mmHg 72%
    09:00 +27°C° 0 mm 1 mps 725 mmHg 63%
    10:00 +29°C° 0 mm 1 mps 725 mmHg 53%
    11:00 +30°C° 0 mm 1 mps 725 mmHg 49%
    12:00 +31°C° 0 mm 2 mps 725 mmHg 45%
    13:00 +32°C° 0 mm 2 mps 725 mmHg 41%
    14:00 +31°C° 0 mm 2 mps 724 mmHg 43%
    15:00 +31°C° 0 mm 2 mps 724 mmHg 45%
    16:00 +31°C° 0 mm 2 mps 724 mmHg 47%
    17:00 +29°C° 0.1 mm 1 mps 723 mmHg 53%
    18:00 +27°C° 0.1 mm 1 mps 723 mmHg 59%
    19:00 +25°C° 0.1 mm 1 mps 723 mmHg 65%
    20:00 +24°C° 0.6 mm 1 mps 723 mmHg 69%
    21:00 +23°C° 0.6 mm 1 mps 723 mmHg 73%
    22:00 +22°C° 0.6 mm 1 mps 723 mmHg 78%
    23:00 +21°C° 0 mm 2 mps 723 mmHg 79%
    Show more